Location: P�rn�nmaa
(61.1833°N, 23.0000°E)
Time: 18:25:36
(UTC+00:00)

Cosmos 1484 Rocket - Pass Details

Date: 08 December 2019
Orbit: 505 x 561 km, 97.4° (Epoch: 17 January)

Event Time Altitude Azimuth Distance (km) Brightness Sun altitude
Rises 14:38:27 0° 175° (S) 2,737 6.8 -8.5°
Reaches altitude 10° 14:40:36 10° 180° (S) 1,850 6.0 -8.7°
Maximum altitude 14:44:33 54° 259° (W) 688 3.7 -9.1°
Drops below altitude 10° 14:48:32 10° 338° (NNW) 1,868 5.4 -9.6°
Sets 14:50:44 0° 343° (NNW) 2,767 6.3 -9.8°
